• Em Portugal
  • Lista de países
  • Para 7 dias
  • Temperatura da água
  • Mapas de satélite
  • Mapa do tempo
  • Widgets de tempo
  • user-avatar
    Iniciar Sessão

    Previsão horária em Salzburgo

    Hoje, 19 Junho, Terça-feira

    Tempo Temperatura Precipitação Vento Pressão Humidade
    00:00 +6°C° 0 mm 2 m/s 630 mmHg 94%
    01:00 +6°C° 0 mm 2 m/s 630 mmHg 94%
    02:00 +6°C° 0 mm 2 m/s 630 mmHg 94%
    03:00 +6°C° 0 mm 2 m/s 630 mmHg 94%
    04:00 +5°C° 0 mm 2 m/s 630 mmHg 95%
    05:00 +8°C° 0 mm 1 m/s 631 mmHg 90%
    06:00 +10°C° 0 mm 1 m/s 632 mmHg 85%
    07:00 +12°C° 0 mm 1 m/s 633 mmHg 80%
    08:00 +13°C° 0,1 mm 1 m/s 633 mmHg 75%
    09:00 +14°C° 0,1 mm 2 m/s 633 mmHg 69%
    10:00 +15°C° 0,1 mm 2 m/s 634 mmHg 64%
    11:00 +16°C° 0 mm 2 m/s 634 mmHg 61%
    12:00 +17°C° 0 mm 2 m/s 634 mmHg 58%
    13:00 +18°C° 0 mm 2 m/s 634 mmHg 55%
    14:00 +18°C° 0 mm 2 m/s 634 mmHg 57%
    15:00 +18°C° 0 mm 2 m/s 634 mmHg 58%
    16:00 +18°C° 0 mm 2 m/s 634 mmHg 59%
    17:00 +17°C° 0 mm 2 m/s 633 mmHg 67%
    18:00 +15°C° 0 mm 2 m/s 633 mmHg 75%
    19:00 +14°C° 0 mm 1 m/s 633 mmHg 83%
    20:00 +13°C° 0 mm 1 m/s 633 mmHg 87%
    21:00 +12°C° 0 mm 1 m/s 632 mmHg 91%
    22:00 +10°C° 0 mm 1 m/s 632 mmHg 95%
    23:00 +10°C° 0 mm 1 m/s 632 mmHg 95%

    Amanhã, 20 Junho, Quarta-feira

    Tempo Temperatura Precipitação Vento Pressão Humidade
    00:00 +9°C° 0 mm 1 m/s 632 mmHg 95%
    01:00 +9°C° 0 mm 1 m/s 632 mmHg 95%
    02:00 +9°C° 0 mm 1 m/s 632 mmHg 95%
    03:00 +8°C° 0 mm 1 m/s 631 mmHg 95%
    04:00 +8°C° 0 mm 1 m/s 631 mmHg 94%
    05:00 +10°C° 0 mm 1 m/s 632 mmHg 89%
    06:00 +12°C° 0 mm 1 m/s 632 mmHg 84%
    07:00 +12°C° 0 mm 0 m/s 633 mmHg 79%
    08:00 +15°C° 0 mm 1 m/s 634 mmHg 71%
    09:00 +18°C° 0 mm 1 m/s 634 mmHg 62%
    10:00 +20°C° 0 mm 1 m/s 635 mmHg 54%
    11:00 +21°C° 0 mm 1 m/s 635 mmHg 52%
    12:00 +21°C° 0 mm 2 m/s 634 mmHg 50%
    13:00 +21°C° 0 mm 2 m/s 634 mmHg 48%
    14:00 +21°C° 0,1 mm 2 m/s 634 mmHg 53%
    15:00 +20°C° 0,1 mm 2 m/s 634 mmHg 57%
    16:00 +20°C° 0,1 mm 2 m/s 633 mmHg 61%
    17:00 +20°C° 0,5 mm 1 m/s 633 mmHg 68%
    18:00 +19°C° 0,5 mm 1 m/s 632 mmHg 74%
    19:00 +18°C° 0,5 mm 1 m/s 632 mmHg 81%
    20:00 +15°C° 0,2 mm 1 m/s 632 mmHg 85%
    21:00 +14°C° 0,2 mm 1 m/s 631 mmHg 89%
    22:00 +12°C° 0,2 mm 1 m/s 631 mmHg 93%
    23:00 +12°C° 0 mm 1 m/s 631 mmHg 94%

    Depois de amanhã, 21 Junho, Quinta-feira

    Tempo Temperatura Precipitação Vento Pressão Humidade
    00:00 +11°C° 0 mm 1 m/s 630 mmHg 94%
    01:00 +11°C° 0 mm 1 m/s 630 mmHg 94%
    02:00 +10°C° 0 mm 1 m/s 629 mmHg 94%
    03:00 +10°C° 0 mm 1 m/s 629 mmHg 94%
    04:00 +10°C° 0 mm 1 m/s 629 mmHg 93%
    05:00 +12°C° 0 mm 1 m/s 629 mmHg 88%
    06:00 +14°C° 0 mm 1 m/s 630 mmHg 82%
    07:00 +16°C° 0 mm 1 m/s 630 mmHg 77%
    08:00 +18°C° 0 mm 1 m/s 631 mmHg 70%
    09:00 +20°C° 0 mm 1 m/s 631 mmHg 64%
    10:00 +22°C° 0 mm 1 m/s 631 mmHg 57%
    11:00 +22°C° 1 mm 1 m/s 631 mmHg 61%
    12:00 +21°C° 1 mm 2 m/s 630 mmHg 65%
    13:00 +21°C° 1 mm 2 m/s 630 mmHg 68%
    14:00 +20°C° 1,8 mm 2 m/s 629 mmHg 74%
    15:00 +19°C° 1,8 mm 2 m/s 629 mmHg 79%
    16:00 +18°C° 1,8 mm 2 m/s 628 mmHg 84%
    17:00 +17°C° 1,5 mm 2 m/s 628 mmHg 87%
    18:00 +16°C° 1,5 mm 2 m/s 628 mmHg 91%
    19:00 +14°C° 1,5 mm 2 m/s 627 mmHg 94%
    20:00 +14°C° 0,6 mm 2 m/s 628 mmHg 95%
    21:00 +13°C° 0,6 mm 2 m/s 628 mmHg 96%
    22:00 +12°C° 0,6 mm 2 m/s 628 mmHg 97%
    23:00 +10°C° 0,4 mm 2 m/s 628 mmHg 97%

    22 Junho, Sexta-feira

    Tempo Temperatura Precipitação Vento Pressão Humidade
    00:00 +10°C° 0,4 mm 2 m/s 628 mmHg 98%
    01:00 +9°C° 0,4 mm 2 m/s 627 mmHg 98%
    02:00 +9°C° 0,3 mm 2 m/s 627 mmHg 98%
    03:00 +8°C° 0,3 mm 2 m/s 627 mmHg 98%
    04:00 +7°C° 0,3 mm 2 m/s 627 mmHg 98%
    05:00 +6°C° 0,3 mm 2 m/s 627 mmHg 97%
    06:00 +6°C° 0,3 mm 2 m/s 626 mmHg 97%
    07:00 +5°C° 0,3 mm 2 m/s 626 mmHg 97%
    08:00 +5°C° 0,1 mm 2 m/s 626 mmHg 96%
    09:00 +5°C° 0,1 mm 2 m/s 627 mmHg 94%
    10:00 +4°C° 0,1 mm 3 m/s 627 mmHg 93%
    11:00 +5°C° 0,1 mm 3 m/s 627 mmHg 87%
    12:00 +7°C° 0,1 mm 3 m/s 627 mmHg 81%
    13:00 +8°C° 0,1 mm 3 m/s 628 mmHg 75%
    14:00 +8°C° 0,1 mm 3 m/s 628 mmHg 72%
    15:00 +8°C° 0,1 mm 3 m/s 628 mmHg 69%
    16:00 +8°C° 0,1 mm 3 m/s 628 mmHg 66%
    17:00 +7°C° 0,1 mm 3 m/s 628 mmHg 70%
    18:00 +7°C° 0,1 mm 2 m/s 628 mmHg 73%
    19:00 +6°C° 0,1 mm 2 m/s 628 mmHg 77%
    20:00 +5°C° 0 mm 2 m/s 628 mmHg 82%
    21:00 +4°C° 0 mm 1 m/s 628 mmHg 87%
    22:00 +3°C° 0 mm 1 m/s 628 mmHg 92%
    23:00 +3°C° 0 mm 1 m/s 628 mmHg 92%

    23 Junho, Sábado

    Tempo Temperatura Precipitação Vento Pressão Humidade
    00:00 +3°C° 0 mm 1 m/s 628 mmHg 92%
    01:00 +3°C° 0 mm 1 m/s 628 mmHg 92%
    02:00 +3°C° 0 mm 1 m/s 628 mmHg 92%
    03:00 +2°C° 0 mm 1 m/s 628 mmHg 93%
    04:00 +2°C° 0 mm 1 m/s 628 mmHg 93%
    05:00 +3°C° 0 mm 1 m/s 628 mmHg 89%
    06:00 +3°C° 0 mm 2 m/s 628 mmHg 85%
    07:00 +5°C° 0 mm 2 m/s 629 mmHg 80%
    08:00 +6°C° 0 mm 2 m/s 629 mmHg 70%
    09:00 +8°C° 0 mm 2 m/s 630 mmHg 60%
    10:00 +10°C° 0 mm 2 m/s 630 mmHg 50%
    11:00 +12°C° 0 mm 2 m/s 630 mmHg 48%
    12:00 +11°C° 0 mm 3 m/s 630 mmHg 46%
    13:00 +12°C° 0 mm 3 m/s 630 mmHg 44%
    14:00 +12°C° 0 mm 3 m/s 630 mmHg 47%
    15:00 +12°C° 0 mm 3 m/s 630 mmHg 50%
    16:00 +11°C° 0 mm 3 m/s 630 mmHg 52%
    17:00 +10°C° 0 mm 2 m/s 630 mmHg 61%
    18:00 +9°C° 0 mm 2 m/s 629 mmHg 69%
    19:00 +8°C° 0 mm 2 m/s 629 mmHg 77%
    20:00 +7°C° 0 mm 1 m/s 629 mmHg 83%
    21:00 +6°C° 0 mm 1 m/s 629 mmHg 88%
    22:00 +5°C° 0 mm 1 m/s 629 mmHg 94%
    23:00 +4°C° 0 mm 1 m/s 629 mmHg 94%

    24 Junho, Domingo

    Tempo Temperatura Precipitação Vento Pressão Humidade
    00:00 +4°C° 0 mm 1 m/s 629 mmHg 94%
    01:00 +4°C° 0 mm 1 m/s 629 mmHg 94%
    02:00 +3°C° 0 mm 1 m/s 628 mmHg 94%
    03:00 +2°C° 0 mm 0 m/s 628 mmHg 94%
    04:00 +1°C° 0 mm 0 m/s 628 mmHg 94%
    05:00 +3°C° 0 mm 0 m/s 628 mmHg 87%
    06:00 +4°C° 0 mm 0 m/s 629 mmHg 81%
    07:00 +6°C° 0 mm 0 m/s 629 mmHg 74%
    08:00 +8°C° 0 mm 0 m/s 630 mmHg 64%
    09:00 +11°C° 0 mm 1 m/s 631 mmHg 53%
    10:00 +13°C° 0 mm 1 m/s 631 mmHg 43%
    11:00 +14°C° 0 mm 1 m/s 631 mmHg 40%
    12:00 +15°C° 0 mm 1 m/s 631 mmHg 37%
    13:00 +16°C° 0 mm 2 m/s 631 mmHg 35%
    14:00 +15°C° 0 mm 2 m/s 631 mmHg 37%
    15:00 +15°C° 0 mm 2 m/s 631 mmHg 39%
    16:00 +15°C° 0 mm 2 m/s 630 mmHg 41%
    17:00 +14°C° 0 mm 2 m/s 630 mmHg 51%
    18:00 +12°C° 0 mm 1 m/s 630 mmHg 61%
    19:00 +11°C° 0 mm 1 m/s 629 mmHg 70%
    20:00 +9°C° 0 mm 1 m/s 629 mmHg 77%
    21:00 +7°C° 0 mm 1 m/s 629 mmHg 84%
    22:00 +5°C° 0 mm 1 m/s 628 mmHg 91%
    23:00 +4°C° 0 mm 1 m/s 628 mmHg 92%
    Mostrar mais